YBNA

Details ICAO YBNA (BNK)
Name Ballina/Byron Gateway
Region Australia
Timezone Australia/Sydney (UTC+10.0)
Plans Departing 42
Arriving 64
Stats Elevation 6 ft / 2 m (AMSL)
Location -28.833306° 153.561207°
Runways 1
Magnetic Variation 11.559° E
Sunrise 2018-05-25 20:28:55 UTC / 2018-05-26 06:28:55 Local
Sunset 2018-05-26 06:59:27 UTC / 2018-05-26 16:59:27 Local
Advertisement - Login to hide

Runways

ID Width Length Bearing (true) Bearing (mag) Surface Threshold Offset Overrun Length
06 98 ft / 30 m 6,241 ft / 1,902 m 73.50° 61.94° Asphalt 0 ft / 0 m 0 ft / 0 m
24 98 ft / 30 m 6,241 ft / 1,902 m 253.50° 241.94° Asphalt 0 ft / 0 m 0 ft / 0 m

Map

Weather


0- 5 10 15 20 25 30 35+ Temperature / ° C

Clouds and Precipitation
Forecast for 2018-05-25 18:00 UTC. Updated 2 hours ago

Ground ~20,000 ft ~40,000 ft Winds

METAR

YBNA 251800Z AUTO 27004KT 9999 // SCT052 BKN067 14/12 Q1026

TAF

Not found

Frequencies

Unicom 121.30 MHz ACTIVATE LIGHTS ONLY MULTICOM
Tower 124.30 MHz BRISBANE CENTRE CTR
Unicom 124.20 MHz BALLINA MULTICOM
Tower 120.30 MHz BRISBANE CTR
Warning: Do not use this data for real-world aviation or navigation. No guarantee of current accuracy is given.